owner,sensor,date,latitude,longitude,vertical_datum,wind_speed,wind_to_direction,wind_speed_of_gust,qcFlag 
ADCP,ioos:station:wmo:42364:1,2013-09-01T00:30:00Z,29.0600,-88.0900,122.0,99.0,-9999.0,99.0,'11144222,99999999,11144222' 
ADCP,ioos:station:wmo:42364:1,2013-09-01T01:30:00Z,29.0600,-88.0900,122.0,99.0,-9999.0,99.0,'11144222,99999999,11144222' 
ADCP,ioos:station:wmo:42364:1,2013-09-01T02:30:00Z,29.0600,-88.0900,122.0,99.0,-9999.0,99.0,'11144222,99999999,11144222' 
ADCP,ioos:station:wmo:42364:1,2013-09-01T03:30:00Z,29.0600,-88.0900,122.0,99.0,-9999.0,99.0,'11144222,99999999,11144222' 
ADCP,ioos:station:wmo:42364:1,2013-09-01T04:30:00Z,29.0600,-88.0900,122.0,99.0,-9999.0,99.0,'11144222,99999999,11144222' 
ADCP,ioos:station:wmo:42364:1,2013-09-01T05:30:00Z,29.0600,-88.0900,122.0,99.0,-9999.0,99.0,'11144222,99999999,11144222' 
ADCP,ioos:station:wmo:42364:1,2013-09-01T06:30:00Z,29.0600,-88.0900,122.0,99.0,-9999.0,99.0,'11144222,99999999,11144222' 
ADCP,ioos:station:wmo:42364:1,2013-09-01T07:30:00Z,29.0600,-88.0900,122.0,99.0,-9999.0,99.0,'11144222,99999999,11144222' 
ADCP,ioos:station:wmo:42364:1,2013-09-01T08:30:00Z,29.0600,-88.0900,122.0,99.0,-9999.0,99.0,'11144222,99999999,11144222' 
ADCP,ioos:station:wmo:42364:1,2013-09-01T09:30:00Z,29.0600,-88.0900,122.0,99.0,-9999.0,99.0,'11144222,99999999,11144222' 
ADCP,ioos:station:wmo:42364:1,2013-09-01T10:30:00Z,29.0600,-88.0900,122.0,99.0,-9999.0,99.0,'11144222,99999999,11144222' 
ADCP,ioos:station:wmo:42364:1,2013-09-01T11:30:00Z,29.0600,-88.0900,122.0,99.0,-9999.0,99.0,'11144222,99999999,11144222' 
ADCP,ioos:station:wmo:42364:1,2013-09-01T12:30:00Z,29.0600,-88.0900,122.0,99.0,-9999.0,99.0,'11144222,99999999,11144222' 
ADCP,ioos:station:wmo:42364:1,2013-09-01T13:30:00Z,29.0600,-88.0900,122.0,99.0,-9999.0,99.0,'11144222,99999999,11144222' 
ADCP,ioos:station:wmo:42364:1,2013-09-01T14:30:00Z,29.0600,-88.0900,122.0,99.0,-9999.0,99.0,'11144222,99999999,11144222' 
ADCP,ioos:station:wmo:42364:1,2013-09-01T15:30:00Z,29.0600,-88.0900,122.0,99.0,-9999.0,99.0,'11144222,99999999,11144222' 
ADCP,ioos:station:wmo:42364:1,2013-09-01T16:30:00Z,29.0600,-88.0900,122.0,99.0,-9999.0,99.0,'11144222,99999999,11144222' 
ADCP,ioos:station:wmo:42364:1,2013-09-01T17:30:00Z,29.0600,-88.0900,122.0,99.0,-9999.0,99.0,'11144222,99999999,11144222' 
ADCP,ioos:station:wmo:42364:1,2013-09-01T18:30:00Z,29.0600,-88.0900,122.0,99.0,-9999.0,99.0,'11144222,99999999,11144222' 
ADCP,ioos:station:wmo:42364:1,2013-09-01T19:30:00Z,29.0600,-88.0900,122.0,99.0,-9999.0,99.0,'11144222,99999999,11144222' 
ADCP,ioos:station:wmo:42364:1,2013-09-01T20:30:00Z,29.0600,-88.0900,122.0,99.0,-9999.0,99.0,'11144222,99999999,11144222' 
ADCP,ioos:station:wmo:42364:1,2013-09-01T21:30:00Z,29.0600,-88.0900,122.0,99.0,-9999.0,99.0,'11144222,99999999,11144222' 
ADCP,ioos:station:wmo:42364:1,2013-09-01T22:30:00Z,29.0600,-88.0900,122.0,99.0,-9999.0,99.0,'11144222,99999999,11144222' 
ADCP,ioos:station:wmo:42364:1,2013-09-01T23:30:00Z,29.0600,-88.0900,122.0,99.0,-9999.0,99.0,'11144222,99999999,11144222' 
ADCP,ioos:station:wmo:42364:1,2013-09-02T00:30:00Z,29.0600,-88.0900,122.0,99.0,-9999.0,99.0,'11144222,99999999,11144222' 
ADCP,ioos:station:wmo:42364:1,2013-09-02T01:30:00Z,29.0600,-88.0900,122.0,99.0,-9999.0,99.0,'11144222,99999999,11144222' 
ADCP,ioos:station:wmo:42364:1,2013-09-02T02:30:00Z,29.0600,-88.0900,122.0,99.0,-9999.0,99.0,'11144222,99999999,11144222' 
ADCP,ioos:station:wmo:42364:1,2013-09-02T03:30:00Z,29.0600,-88.0900,122.0,99.0,-9999.0,99.0,'11144222,99999999,11144222' 
ADCP,ioos:station:wmo:42364:1,2013-09-02T04:30:00Z,29.0600,-88.0900,122.0,99.0,-9999.0,99.0,'11144222,99999999,11144222' 
ADCP,ioos:station:wmo:42364:1,2013-09-02T05:30:00Z,29.0600,-88.0900,122.0,99.0,-9999.0,99.0,'11144222,99999999,11144222' 
ADCP,ioos:station:wmo:42364:1,2013-09-02T06:30:00Z,29.0600,-88.0900,122.0,99.0,-9999.0,99.0,'11144222,99999999,11144222' 
ADCP,ioos:station:wmo:42364:1,2013-09-02T07:30:00Z,29.0600,-88.0900,122.0,99.0,-9999.0,99.0,'11144222,99999999,11144222' 
ADCP,ioos:station:wmo:42364:1,2013-09-02T08:30:00Z,29.0600,-88.0900,122.0,99.0,-9999.0,99.0,'11144222,99999999,11144222' 
ADCP,ioos:station:wmo:42364:1,2013-09-02T09:30:00Z,29.0600,-88.0900,122.0,99.0,-9999.0,99.0,'11144222,99999999,11144222' 
ADCP,ioos:station:wmo:42364:1,2013-09-02T10:30:00Z,29.0600,-88.0900,122.0,99.0,-9999.0,99.0,'11144222,99999999,11144222' 
ADCP,ioos:station:wmo:42364:1,2013-09-02T11:30:00Z,29.0600,-88.0900,122.0,99.0,-9999.0,99.0,'11144222,99999999,11144222' 
ADCP,ioos:station:wmo:42364:1,2013-09-02T12:30:00Z,29.0600,-88.0900,122.0,99.0,-9999.0,99.0,'11144222,99999999,11144222' 
ADCP,ioos:station:wmo:42364:1,2013-09-02T13:30:00Z,29.0600,-88.0900,122.0,99.0,-9999.0,99.0,'11144222,99999999,11144222' 
ADCP,ioos:station:wmo:42364:1,2013-09-02T14:30:00Z,29.0600,-88.0900,122.0,99.0,-9999.0,99.0,'11144222,99999999,11144222' 
ADCP,ioos:station:wmo:42364:1,2013-09-02T15:30:00Z,29.0600,-88.0900,122.0,99.0,-9999.0,99.0,'11144222,99999999,11144222' 
ADCP,ioos:station:wmo:42364:1,2013-09-02T16:30:00Z,29.0600,-88.0900,122.0,99.0,-9999.0,99.0,'11144222,99999999,11144222' 
ADCP,ioos:station:wmo:42364:1,2013-09-02T17:30:00Z,29.0600,-88.0900,122.0,99.0,-9999.0,99.0,'11144222,99999999,11144222' 
ADCP,ioos:station:wmo:42364:1,2013-09-02T18:30:00Z,29.0600,-88.0900,122.0,99.0,-9999.0,99.0,'11144222,99999999,11144222' 
ADCP,ioos:station:wmo:42364:1,2013-09-02T19:30:00Z,29.0600,-88.0900,122.0,99.0,-9999.0,99.0,'11144222,99999999,11144222' 
ADCP,ioos:station:wmo:42364:1,2013-09-02T20:30:00Z,29.0600,-88.0900,122.0,99.0,-9999.0,99.0,'11144222,99999999,11144222' 
ADCP,ioos:station:wmo:42364:1,2013-09-02T21:30:00Z,29.0600,-88.0900,122.0,99.0,-9999.0,99.0,'11144222,99999999,11144222' 
ADCP,ioos:station:wmo:42364:1,2013-09-04T20:30:00Z,29.0600,-88.0900,122.0,99.0,-9999.0,99.0,'11144222,99999999,11144222' 
ADCP,ioos:station:wmo:42364:1,2013-09-04T21:30:00Z,29.0600,-88.0900,122.0,99.0,-9999.0,99.0,'11144222,99999999,11144222' 
ADCP,ioos:station:wmo:42364:1,2013-09-04T22:30:00Z,29.0600,-88.0900,122.0,99.0,-9999.0,99.0,'11144222,99999999,11144222' 
ADCP,ioos:station:wmo:42364:1,2013-09-04T23:30:00Z,29.0600,-88.0900,122.0,99.0,-9999.0,99.0,'11144222,99999999,11144222' 
ADCP,ioos:station:wmo:42364:1,2013-09-05T00:30:00Z,29.0600,-88.0900,122.0,99.0,-9999.0,99.0,'11144222,99999999,11144222' 
ADCP,ioos:station:wmo:42364:1,2013-09-05T01:30:00Z,29.0600,-88.0900,122.0,99.0,-9999.0,99.0,'11144222,99999999,11144222' 
ADCP,ioos:station:wmo:42364:1,2013-09-05T02:30:00Z,29.0600,-88.0900,122.0,99.0,-9999.0,99.0,'11144222,99999999,11144222' 
ADCP,ioos:station:wmo:42364:1,2013-09-05T03:30:00Z,29.0600,-88.0900,122.0,99.0,-9999.0,99.0,'11144222,99999999,11144222' 
ADCP,ioos:station:wmo:42364:1,2013-09-05T04:30:00Z,29.0600,-88.0900,122.0,99.0,-9999.0,99.0,'11144222,99999999,11144222' 
ADCP,ioos:station:wmo:42364:1,2013-09-05T05:30:00Z,29.0600,-88.0900,122.0,99.0,-9999.0,99.0,'11144222,99999999,11144222' 
ADCP,ioos:station:wmo:42364:1,2013-09-05T06:30:00Z,29.0600,-88.0900,122.0,99.0,-9999.0,99.0,'11144222,99999999,11144222' 
ADCP,ioos:station:wmo:42364:1,2013-09-05T07:30:00Z,29.0600,-88.0900,122.0,99.0,-9999.0,99.0,'11144222,99999999,11144222' 
ADCP,ioos:station:wmo:42364:1,2013-09-05T08:30:00Z,29.0600,-88.0900,122.0,99.0,-9999.0,99.0,'11144222,99999999,11144222' 
ADCP,ioos:station:wmo:42364:1,2013-09-05T09:30:00Z,29.0600,-88.0900,122.0,99.0,-9999.0,99.0,'11144222,99999999,11144222' 
ADCP,ioos:station:wmo:42364:1,2013-09-05T10:30:00Z,29.0600,-88.0900,122.0,99.0,-9999.0,99.0,'11144222,99999999,11144222' 
ADCP,ioos:station:wmo:42364:1,2013-09-05T11:30:00Z,29.0600,-88.0900,122.0,99.0,-9999.0,99.0,'11144222,99999999,11144222' 
ADCP,ioos:station:wmo:42364:1,2013-09-05T12:30:00Z,29.0600,-88.0900,122.0,99.0,-9999.0,99.0,'11144222,99999999,11144222' 
ADCP,ioos:station:wmo:42364:1,2013-09-05T13:30:00Z,29.0600,-88.0900,122.0,99.0,-9999.0,99.0,'11144222,99999999,11144222' 
ADCP,ioos:station:wmo:42364:1,2013-09-05T14:30:00Z,29.0600,-88.0900,122.0,99.0,-9999.0,99.0,'11144222,99999999,11144222' 
ADCP,ioos:station:wmo:42364:1,2013-09-05T15:30:00Z,29.0600,-88.0900,122.0,99.0,-9999.0,99.0,'11144222,99999999,11144222' 
ADCP,ioos:station:wmo:42364:1,2013-09-05T16:30:00Z,29.0600,-88.0900,122.0,99.0,-9999.0,99.0,'11144222,99999999,11144222' 
ADCP,ioos:station:wmo:42364:1,2013-09-05T17:30:00Z,29.0600,-88.0900,122.0,99.0,-9999.0,99.0,'11144222,99999999,11144222' 
ADCP,ioos:station:wmo:42364:1,2013-09-05T18:30:00Z,29.0600,-88.0900,122.0,99.0,-9999.0,99.0,'11144222,99999999,11144222' 
ADCP,ioos:station:wmo:42364:1,2013-09-05T19:30:00Z,29.0600,-88.0900,122.0,99.0,-9999.0,99.0,'11144222,99999999,11144222' 
ADCP,ioos:station:wmo:42364:1,2013-09-05T20:30:00Z,29.0600,-88.0900,122.0,99.0,-9999.0,99.0,'11144222,99999999,11144222' 
ADCP,ioos:station:wmo:42364:1,2013-09-05T21:30:00Z,29.0600,-88.0900,122.0,99.0,-9999.0,99.0,'11144222,99999999,11144222' 
ADCP,ioos:station:wmo:42364:1,2013-09-05T22:30:00Z,29.0600,-88.0900,122.0,99.0,-9999.0,99.0,'11144222,99999999,11144222' 
ADCP,ioos:station:wmo:42364:1,2013-09-05T23:30:00Z,29.0600,-88.0900,122.0,99.0,-9999.0,99.0,'11144222,99999999,11144222' 
ADCP,ioos:station:wmo:42364:1,2013-09-06T00:30:00Z,29.0600,-88.0900,122.0,99.0,-9999.0,99.0,'11144222,99999999,11144222' 
ADCP,ioos:station:wmo:42364:1,2013-09-06T01:30:00Z,29.0600,-88.0900,122.0,99.0,-9999.0,99.0,'11144222,99999999,11144222' 
ADCP,ioos:station:wmo:42364:1,2013-09-06T02:30:00Z,29.0600,-88.0900,122.0,99.0,-9999.0,99.0,'11144222,99999999,11144222' 
ADCP,ioos:station:wmo:42364:1,2013-09-06T03:30:00Z,29.0600,-88.0900,122.0,99.0,-9999.0,99.0,'11144222,99999999,11144222' 
ADCP,ioos:station:wmo:42364:1,2013-09-06T04:30:00Z,29.0600,-88.0900,122.0,99.0,-9999.0,99.0,'11144222,99999999,11144222' 
ADCP,ioos:station:wmo:42364:1,2013-09-06T05:30:00Z,29.0600,-88.0900,122.0,99.0,-9999.0,99.0,'11144222,99999999,11144222' 
ADCP,ioos:station:wmo:42364:1,2013-09-06T06:30:00Z,29.0600,-88.0900,122.0,99.0,-9999.0,99.0,'11144222,99999999,11144222' 
ADCP,ioos:station:wmo:42364:1,2013-09-06T07:30:00Z,29.0600,-88.0900,122.0,99.0,-9999.0,99.0,'11144222,99999999,11144222' 
ADCP,ioos:station:wmo:42364:1,2013-09-06T08:30:00Z,29.0600,-88.0900,122.0,99.0,-9999.0,99.0,'11144222,99999999,11144222' 
ADCP,ioos:station:wmo:42364:1,2013-09-06T09:30:00Z,29.0600,-88.0900,122.0,99.0,-9999.0,99.0,'11144222,99999999,11144222' 
ADCP,ioos:station:wmo:42364:1,2013-09-06T10:30:00Z,29.0600,-88.0900,122.0,99.0,-9999.0,99.0,'11144222,99999999,11144222' 
ADCP,ioos:station:wmo:42364:1,2013-09-06T11:30:00Z,29.0600,-88.0900,122.0,99.0,-9999.0,99.0,'11144222,99999999,11144222' 
ADCP,ioos:station:wmo:42364:1,2013-09-06T13:30:00Z,29.0600,-88.0900,122.0,99.0,-9999.0,99.0,'11144222,99999999,11144222' 
ADCP,ioos:station:wmo:42364:1,2013-09-06T14:30:00Z,29.0600,-88.0900,122.0,99.0,-9999.0,99.0,'11144222,99999999,11144222' 
ADCP,ioos:station:wmo:42364:1,2013-09-06T15:30:00Z,29.0600,-88.0900,122.0,99.0,-9999.0,99.0,'11144222,99999999,11144222' 
ADCP,ioos:station:wmo:42364:1,2013-09-06T16:30:00Z,29.0600,-88.0900,122.0,99.0,-9999.0,99.0,'11144222,99999999,11144222' 
ADCP,ioos:station:wmo:42364:1,2013-09-06T17:30:00Z,29.0600,-88.0900,122.0,99.0,-9999.0,99.0,'11144222,99999999,11144222' 
ADCP,ioos:station:wmo:42364:1,2013-09-06T18:30:00Z,29.0600,-88.0900,122.0,99.0,-9999.0,99.0,'11144222,99999999,11144222' 
ADCP,ioos:station:wmo:42364:1,2013-09-06T20:30:00Z,29.0600,-88.0900,122.0,99.0,-9999.0,99.0,'11144222,99999999,11144222' 
ADCP,ioos:station:wmo:42364:1,2013-09-06T21:30:00Z,29.0600,-88.0900,122.0,99.0,-9999.0,99.0,'11144222,99999999,11144222' 
ADCP,ioos:station:wmo:42364:1,2013-09-06T22:30:00Z,29.0600,-88.0900,122.0,99.0,-9999.0,99.0,'11144222,99999999,11144222' 
ADCP,ioos:station:wmo:42364:1,2013-09-06T23:30:00Z,29.0600,-88.0900,122.0,99.0,-9999.0,99.0,'11144222,99999999,11144222' 
ADCP,ioos:station:wmo:42364:1,2013-09-07T00:30:00Z,29.0600,-88.0900,122.0,99.0,-9999.0,99.0,'11144222,99999999,11144222' 
ADCP,ioos:station:wmo:42364:1,2013-09-07T01:30:00Z,29.0600,-88.0900,122.0,99.0,-9999.0,99.0,'11144222,99999999,11144222' 
ADCP,ioos:station:wmo:42364:1,2013-09-07T02:30:00Z,29.0600,-88.0900,122.0,99.0,-9999.0,99.0,'11144222,99999999,11144222' 
ADCP,ioos:station:wmo:42364:1,2013-09-07T03:30:00Z,29.0600,-88.0900,122.0,99.0,-9999.0,99.0,'11144222,99999999,11144222' 
ADCP,ioos:station:wmo:42364:1,2013-09-07T04:30:00Z,29.0600,-88.0900,122.0,99.0,-9999.0,99.0,'11144222,99999999,11144222' 
ADCP,ioos:station:wmo:42364:1,2013-09-07T05:30:00Z,29.0600,-88.0900,122.0,99.0,-9999.0,99.0,'11144222,99999999,11144222' 
ADCP,ioos:station:wmo:42364:1,2013-09-07T06:30:00Z,29.0600,-88.0900,122.0,99.0,-9999.0,99.0,'11144222,99999999,11144222' 
ADCP,ioos:station:wmo:42364:1,2013-09-07T07:30:00Z,29.0600,-88.0900,122.0,99.0,-9999.0,99.0,'11144222,99999999,11144222' 
ADCP,ioos:station:wmo:42364:1,2013-09-07T08:30:00Z,29.0600,-88.0900,122.0,99.0,-9999.0,99.0,'11144222,99999999,11144222' 
ADCP,ioos:station:wmo:42364:1,2013-09-07T09:30:00Z,29.0600,-88.0900,122.0,99.0,-9999.0,99.0,'11144222,99999999,11144222' 
ADCP,ioos:station:wmo:42364:1,2013-09-07T10:30:00Z,29.0600,-88.0900,122.0,99.0,-9999.0,99.0,'11144222,99999999,11144222' 
ADCP,ioos:station:wmo:42364:1,2013-09-07T11:30:00Z,29.0600,-88.0900,122.0,99.0,-9999.0,99.0,'11144222,99999999,11144222' 
ADCP,ioos:station:wmo:42364:1,2013-09-07T12:30:00Z,29.0600,-88.0900,122.0,99.0,-9999.0,99.0,'11144222,99999999,11144222' 
ADCP,ioos:station:wmo:42364:1,2013-09-07T13:30:00Z,29.0600,-88.0900,122.0,99.0,-9999.0,99.0,'11144222,99999999,11144222' 
ADCP,ioos:station:wmo:42364:1,2013-09-07T14:30:00Z,29.0600,-88.0900,122.0,99.0,-9999.0,99.0,'11144222,99999999,11144222' 
ADCP,ioos:station:wmo:42364:1,2013-09-07T15:30:00Z,29.0600,-88.0900,122.0,99.0,-9999.0,99.0,'11144222,99999999,11144222' 
ADCP,ioos:station:wmo:42364:1,2013-09-07T16:30:00Z,29.0600,-88.0900,122.0,99.0,-9999.0,99.0,'11144222,99999999,11144222' 
ADCP,ioos:station:wmo:42364:1,2013-09-07T17:30:00Z,29.0600,-88.0900,122.0,99.0,-9999.0,99.0,'11144222,99999999,11144222' 
ADCP,ioos:station:wmo:42364:1,2013-09-07T18:30:00Z,29.0600,-88.0900,122.0,99.0,-9999.0,99.0,'11144222,99999999,11144222' 
ADCP,ioos:station:wmo:42364:1,2013-09-07T19:30:00Z,29.0600,-88.0900,122.0,99.0,-9999.0,99.0,'11144222,99999999,11144222' 
ADCP,ioos:station:wmo:42364:1,2013-09-07T20:30:00Z,29.0600,-88.0900,122.0,99.0,-9999.0,99.0,'11144222,99999999,11144222' 
ADCP,ioos:station:wmo:42364:1,2013-09-07T21:30:00Z,29.0600,-88.0900,122.0,99.0,-9999.0,99.0,'11144222,99999999,11144222' 
ADCP,ioos:station:wmo:42364:1,2013-09-07T22:30:00Z,29.0600,-88.0900,122.0,99.0,-9999.0,99.0,'11144222,99999999,11144222' 
ADCP,ioos:station:wmo:42364:1,2013-09-07T23:30:00Z,29.0600,-88.0900,122.0,99.0,-9999.0,99.0,'11144222,99999999,11144222' 
ADCP,ioos:station:wmo:42364:1,2013-09-08T00:30:00Z,29.0600,-88.0900,122.0,99.0,-9999.0,99.0,'11144222,99999999,11144222' 
ADCP,ioos:station:wmo:42364:1,2013-09-08T01:30:00Z,29.0600,-88.0900,122.0,99.0,-9999.0,99.0,'11144222,99999999,11144222' 
ADCP,ioos:station:wmo:42364:1,2013-09-08T02:30:00Z,29.0600,-88.0900,122.0,99.0,-9999.0,99.0,'11144222,99999999,11144222' 
ADCP,ioos:station:wmo:42364:1,2013-09-08T03:30:00Z,29.0600,-88.0900,122.0,99.0,-9999.0,99.0,'11144222,99999999,11144222' 
ADCP,ioos:station:wmo:42364:1,2013-09-08T04:30:00Z,29.0600,-88.0900,122.0,99.0,-9999.0,99.0,'11144222,99999999,11144222' 
ADCP,ioos:station:wmo:42364:1,2013-09-08T05:30:00Z,29.0600,-88.0900,122.0,99.0,-9999.0,99.0,'11144222,99999999,11144222' 
ADCP,ioos:station:wmo:42364:1,2013-09-08T06:30:00Z,29.0600,-88.0900,122.0,99.0,-9999.0,99.0,'11144222,99999999,11144222' 
ADCP,ioos:station:wmo:42364:1,2013-09-08T07:30:00Z,29.0600,-88.0900,122.0,99.0,-9999.0,99.0,'11144222,99999999,11144222' 
ADCP,ioos:station:wmo:42364:1,2013-09-08T08:30:00Z,29.0600,-88.0900,122.0,99.0,-9999.0,99.0,'11144222,99999999,11144222' 
ADCP,ioos:station:wmo:42364:1,2013-09-08T09:30:00Z,29.0600,-88.0900,122.0,99.0,-9999.0,99.0,'11144222,99999999,11144222' 
ADCP,ioos:station:wmo:42364:1,2013-09-08T10:30:00Z,29.0600,-88.0900,122.0,99.0,-9999.0,99.0,'11144222,99999999,11144222' 
ADCP,ioos:station:wmo:42364:1,2013-09-08T11:30:00Z,29.0600,-88.0900,122.0,99.0,-9999.0,99.0,'11144222,99999999,11144222' 
ADCP,ioos:station:wmo:42364:1,2013-09-08T12:30:00Z,29.0600,-88.0900,122.0,99.0,-9999.0,99.0,'11144222,99999999,11144222' 
ADCP,ioos:station:wmo:42364:1,2013-09-08T13:30:00Z,29.0600,-88.0900,122.0,99.0,-9999.0,99.0,'11144222,99999999,11144222' 
ADCP,ioos:station:wmo:42364:1,2013-09-08T14:30:00Z,29.0600,-88.0900,122.0,99.0,-9999.0,99.0,'11144222,99999999,11144222' 
ADCP,ioos:station:wmo:42364:1,2013-09-08T15:30:00Z,29.0600,-88.0900,122.0,99.0,-9999.0,99.0,'11144222,99999999,11144222' 
ADCP,ioos:station:wmo:42364:1,2013-09-08T16:30:00Z,29.0600,-88.0900,122.0,99.0,-9999.0,99.0,'11144222,99999999,11144222' 
ADCP,ioos:station:wmo:42364:1,2013-09-08T17:30:00Z,29.0600,-88.0900,122.0,99.0,-9999.0,99.0,'11144222,99999999,11144222' 
ADCP,ioos:station:wmo:42364:1,2013-09-08T18:30:00Z,29.0600,-88.0900,122.0,99.0,-9999.0,99.0,'11144222,99999999,11144222' 
ADCP,ioos:station:wmo:42364:1,2013-09-08T19:30:00Z,29.0600,-88.0900,122.0,99.0,-9999.0,99.0,'11144222,99999999,11144222' 
ADCP,ioos:station:wmo:42364:1,2013-09-08T20:30:00Z,29.0600,-88.0900,122.0,99.0,-9999.0,99.0,'11144222,99999999,11144222' 
ADCP,ioos:station:wmo:42364:1,2013-09-08T21:30:00Z,29.0600,-88.0900,122.0,99.0,-9999.0,99.0,'11144222,99999999,11144222' 
ADCP,ioos:station:wmo:42364:1,2013-09-08T22:30:00Z,29.0600,-88.0900,122.0,99.0,-9999.0,99.0,'11144222,99999999,11144222' 
ADCP,ioos:station:wmo:42364:1,2013-09-08T23:30:00Z,29.0600,-88.0900,122.0,99.0,-9999.0,99.0,'11144222,99999999,11144222' 
ADCP,ioos:station:wmo:42364:1,2013-09-09T00:30:00Z,29.0600,-88.0900,122.0,99.0,-9999.0,99.0,'11144222,99999999,11144222' 
ADCP,ioos:station:wmo:42364:1,2013-09-09T01:30:00Z,29.0600,-88.0900,122.0,99.0,-9999.0,99.0,'11144222,99999999,11144222' 
ADCP,ioos:station:wmo:42364:1,2013-09-09T02:30:00Z,29.0600,-88.0900,122.0,99.0,-9999.0,99.0,'11144222,99999999,11144222' 
ADCP,ioos:station:wmo:42364:1,2013-09-09T03:30:00Z,29.0600,-88.0900,122.0,99.0,-9999.0,99.0,'11144222,99999999,11144222' 
ADCP,ioos:station:wmo:42364:1,2013-09-09T04:30:00Z,29.0600,-88.0900,122.0,99.0,-9999.0,99.0,'11144222,99999999,11144222' 
ADCP,ioos:station:wmo:42364:1,2013-09-09T06:30:00Z,29.0600,-88.0900,122.0,99.0,-9999.0,99.0,'11144222,99999999,11144222' 
ADCP,ioos:station:wmo:42364:1,2013-09-09T07:30:00Z,29.0600,-88.0900,122.0,99.0,-9999.0,99.0,'11144222,99999999,11144222' 
ADCP,ioos:station:wmo:42364:1,2013-09-09T08:30:00Z,29.0600,-88.0900,122.0,99.0,-9999.0,99.0,'11144222,99999999,11144222' 
ADCP,ioos:station:wmo:42364:1,2013-09-09T09:30:00Z,29.0600,-88.0900,122.0,99.0,-9999.0,99.0,'11144222,99999999,11144222' 
ADCP,ioos:station:wmo:42364:1,2013-09-09T10:30:00Z,29.0600,-88.0900,122.0,99.0,-9999.0,99.0,'11144222,99999999,11144222' 
ADCP,ioos:station:wmo:42364:1,2013-09-09T11:30:00Z,29.0600,-88.0900,122.0,99.0,-9999.0,99.0,'11144222,99999999,11144222' 
ADCP,ioos:station:wmo:42364:1,2013-09-09T12:30:00Z,29.0600,-88.0900,122.0,99.0,-9999.0,99.0,'11144222,99999999,11144222' 
ADCP,ioos:station:wmo:42364:1,2013-09-09T13:30:00Z,29.0600,-88.0900,122.0,99.0,-9999.0,99.0,'11144222,99999999,11144222' 
ADCP,ioos:station:wmo:42364:1,2013-09-09T14:30:00Z,29.0600,-88.0900,122.0,99.0,-9999.0,99.0,'11144222,99999999,11144222' 
ADCP,ioos:station:wmo:42364:1,2013-09-09T15:30:00Z,29.0600,-88.0900,122.0,99.0,-9999.0,99.0,'11144222,99999999,11144222' 
ADCP,ioos:station:wmo:42364:1,2013-09-09T16:30:00Z,29.0600,-88.0900,122.0,99.0,-9999.0,99.0,'11144222,99999999,11144222' 
ADCP,ioos:station:wmo:42364:1,2013-09-09T17:30:00Z,29.0600,-88.0900,122.0,99.0,-9999.0,99.0,'11144222,99999999,11144222' 
ADCP,ioos:station:wmo:42364:1,2013-09-09T18:30:00Z,29.0600,-88.0900,122.0,99.0,-9999.0,99.0,'11144222,99999999,11144222' 
ADCP,ioos:station:wmo:42364:1,2013-09-09T19:30:00Z,29.0600,-88.0900,122.0,99.0,-9999.0,99.0,'11144222,99999999,11144222' 
ADCP,ioos:station:wmo:42364:1,2013-09-09T20:30:00Z,29.0600,-88.0900,122.0,99.0,-9999.0,99.0,'11144222,99999999,11144222' 
ADCP,ioos:station:wmo:42364:1,2013-09-09T21:30:00Z,29.0600,-88.0900,122.0,99.0,-9999.0,99.0,'11144222,99999999,11144222' 
ADCP,ioos:station:wmo:42364:1,2013-09-09T22:30:00Z,29.0600,-88.0900,122.0,99.0,-9999.0,99.0,'11144222,99999999,11144222' 
ADCP,ioos:station:wmo:42364:1,2013-09-09T23:30:00Z,29.0600,-88.0900,122.0,99.0,-9999.0,99.0,'11144222,99999999,11144222' 
ADCP,ioos:station:wmo:42364:1,2013-09-10T00:30:00Z,29.0600,-88.0900,122.0,99.0,-9999.0,99.0,'11144222,99999999,11144222' 
ADCP,ioos:station:wmo:42364:1,2013-09-10T01:30:00Z,29.0600,-88.0900,122.0,99.0,-9999.0,99.0,'11144222,99999999,11144222' 
ADCP,ioos:station:wmo:42364:1,2013-09-10T03:30:00Z,29.0600,-88.0900,122.0,99.0,-9999.0,99.0,'11144222,99999999,11144222' 
ADCP,ioos:station:wmo:42364:1,2013-09-10T04:30:00Z,29.0600,-88.0900,122.0,99.0,-9999.0,99.0,'11144222,99999999,11144222' 
ADCP,ioos:station:wmo:42364:1,2013-09-10T05:30:00Z,29.0600,-88.0900,122.0,99.0,-9999.0,99.0,'11144222,99999999,11144222' 
ADCP,ioos:station:wmo:42364:1,2013-09-10T06:30:00Z,29.0600,-88.0900,122.0,99.0,-9999.0,99.0,'11144222,99999999,11144222' 
ADCP,ioos:station:wmo:42364:1,2013-09-10T07:30:00Z,29.0600,-88.0900,122.0,99.0,-9999.0,99.0,'11144222,99999999,11144222' 
ADCP,ioos:station:wmo:42364:1,2013-09-10T08:30:00Z,29.0600,-88.0900,122.0,99.0,-9999.0,99.0,'11144222,99999999,11144222' 
ADCP,ioos:station:wmo:42364:1,2013-09-10T09:30:00Z,29.0600,-88.0900,122.0,99.0,-9999.0,99.0,'11144222,99999999,11144222' 
ADCP,ioos:station:wmo:42364:1,2013-09-10T10:30:00Z,29.0600,-88.0900,122.0,99.0,-9999.0,99.0,'11144222,99999999,11144222' 
ADCP,ioos:station:wmo:42364:1,2013-09-10T11:30:00Z,29.0600,-88.0900,122.0,99.0,-9999.0,99.0,'11144222,99999999,11144222' 
ADCP,ioos:station:wmo:42364:1,2013-09-10T12:30:00Z,29.0600,-88.0900,122.0,99.0,-9999.0,99.0,'11144222,99999999,11144222' 
ADCP,ioos:station:wmo:42364:1,2013-09-10T13:30:00Z,29.0600,-88.0900,122.0,99.0,-9999.0,99.0,'11144222,99999999,11144222' 
ADCP,ioos:station:wmo:42364:1,2013-09-10T14:30:00Z,29.0600,-88.0900,122.0,7.5,76.0,99.0,'11111222,11111222,11144222' 
ADCP,ioos:station:wmo:42364:1,2013-09-10T15:30:00Z,29.0600,-88.0900,122.0,7.3,63.0,99.0,'11111222,11111222,11144222' 
ADCP,ioos:station:wmo:42364:1,2013-09-10T16:30:00Z,29.0600,-88.0900,122.0,8.1,53.0,99.0,'11111222,11111222,11144222' 
ADCP,ioos:station:wmo:42364:1,2013-09-10T17:30:00Z,29.0600,-88.0900,122.0,7.5,69.0,99.0,'11111222,11111222,11144222' 
ADCP,ioos:station:wmo:42364:1,2013-09-10T18:30:00Z,29.0600,-88.0900,122.0,7.3,71.0,99.0,'11111222,11111222,11144222' 
ADCP,ioos:station:wmo:42364:1,2013-09-10T19:30:00Z,29.0600,-88.0900,122.0,7.9,71.0,99.0,'11111222,11111222,11144222' 
ADCP,ioos:station:wmo:42364:1,2013-09-10T20:30:00Z,29.0600,-88.0900,122.0,7.8,78.0,99.0,'11111222,11111222,11144222' 
ADCP,ioos:station:wmo:42364:1,2013-09-10T21:30:00Z,29.0600,-88.0900,122.0,7.6,70.0,99.0,'11111222,11111222,11144222' 
ADCP,ioos:station:wmo:42364:1,2013-09-10T22:30:00Z,29.0600,-88.0900,122.0,8.1,71.0,99.0,'11111222,11111222,11144222' 
ADCP,ioos:station:wmo:42364:1,2013-09-10T23:30:00Z,29.0600,-88.0900,122.0,7.7,71.0,99.0,'11111222,11111222,11144222' 
ADCP,ioos:station:wmo:42364:1,2013-09-11T00:30:00Z,29.0600,-88.0900,122.0,7.4,73.0,99.0,'11111222,11111222,11144222' 
ADCP,ioos:station:wmo:42364:1,2013-09-11T01:30:00Z,29.0600,-88.0900,122.0,8.0,80.0,99.0,'11111222,11111222,11144222' 
ADCP,ioos:station:wmo:42364:1,2013-09-11T04:30:00Z,29.0600,-88.0900,122.0,8.2,80.0,99.0,'11111222,11111222,11144222' 
ADCP,ioos:station:wmo:42364:1,2013-09-11T05:30:00Z,29.0600,-88.0900,122.0,8.0,81.0,99.0,'11111222,11111222,11144222' 
ADCP,ioos:station:wmo:42364:1,2013-09-11T06:30:00Z,29.0600,-88.0900,122.0,7.2,80.0,99.0,'11111222,11111222,11144222' 
ADCP,ioos:station:wmo:42364:1,2013-09-11T07:30:00Z,29.0600,-88.0900,122.0,7.4,81.0,99.0,'11111222,11111222,11144222' 